SCP
0 0 0 0 0 0 0 0 0 0 0 -0 -0 0 0 0 0 0 -0 -0 -0 0 0 0 0 0 0 -0 0 0 -0 0 0 0 0 0 -0 0 -0 0 0 0 0 0 0 0 0 0 -0
0 0 0 1 0 0 0 0 0 -0 0 0 0 0 -0 0 0 0 -0 -0 0 0 0 0 0 0 0 0 -0 -0 0 0 0 0 0 0 -0 0 -0 0 0 -0 -0 0 -0 0 0 -0 -0
0 0 1 0 -0 -0 -0 0 0 -0 -0 -0 -0 0 -0 0 -0 -0 0 0 0 0 0 0 0 0 0 0 0 0 0 0 0 0 0 -0 -0 0 -0 -0 -0 -0 0 0 0 0 -0 -0 -0
1 1 1 0 -0 -0 -0 0 0 0 0 0 -0 -0 0 0 0 0 -0 -0 0 0 0 0 0 0 0 0 0 0 0 0 0 -0 0 0 -0 -0 -0 0 -0 0 0 0 0 -0 0 -0 -0
1 1 0 0 0 0 -0 0 0 0 0 0 0 0 0 0 0 0 0 0 0 0 0 0 0 0 0 0 0 0 0 0 -0 -0 -0 -0 -0 -0 -0 -0 0 -0 -0 -0 0 -0 0 -0 0
2 1 0 0 0 0 0 0 0 0 0 0 0 0 0 0 0 0 0 -0 0 0 0 -0 0 0 0 0 0 0 -0 0 -0 -0 -0 -0 -0 -0 -0 -0 -0 -0 -0 -0 -0 -0 -0 -0 -0
1 0 0 0 0 0 0 0 0 0 0 0 -0 -0 -0 0 -0 0 0 -0 0 -0 -0 0 0 0 0 0 0 0 -0 -0 -0 0 0 -0 -0 -0 0 -0 -0 -0 -0 -0 -0 -0 -0 -0 -0
1 0 0 0 0 0 0 0 0 0 0 0 0 -0 -0 -0 -0 -0 0 0 0 0 -0 0 0 0 -0 -0 -0 -0 -0 -0 -0 0 0 0 -0 -0 -0 -0 -0 0 0 -0 -0 -0 -0 0 -0
1 0 0 0 0 0 0 0 0 -0 0 0 0 0 -0 -0 -0 -0 -0 0 0 -0 -0 -0 -0 -0 -0 -0 -0 -0 -0 -0 -0 -0 -0 -0 -0 -0 -0 -0 -0 -0 -0 0 -0 -0 -0 -0 0
0 0 0 0 0 0 0 0 0 0 0 0 0 -0 -0 -0 -0 -0 -0 -0 -0 -0 -0 0 -0 0 -0 -0 0 0 -0 -0 0 0 0 -0 -0 0 0 -0 -0 -0 -0 0 0 0 -0 0 -0
0 0 0 0 0 0 0 0 0 0 0 0 0 -0 -0 -0 -0 -0 -0 -0 -0 -0 -0 -0 0 0 0 0 -0 -0 0 -0 -0 -0 -0 -0 -0 -0 -0 0 -0 -0 -0 -0 -0 -0 -0 -0 -0
0 0 0 0 0 0 0 0 0 0 0 0 0 -0 -0 -0 -0 -0 -0 -0 -0 -0 -0 -0 -0 0 0 0 -0 0 0 0 0 -0 -0 0 -0 -0 0 -0 0 0 -0 -0 -0 -0 -0 -0 -0
0 0 0 0 0 0 0 0 0 0 0 0 -0 -0 -0 -0 -0 -0 -0 -0 -0 -0 -0 -0 -0 -0 0 -0 -0 -0 0 0 0 -0 -0 0 0 0 0 0 -0 0 0 0 0 0 0 0 -0
0 0 0 0 0 0 0 0 0 0 0 0 -0 -0 -0 -0 -0 -0 -0 -0 -0 -0 -0 -0 -0 -0 -0 -0 0 0 0 0 0 -0 -0 -0 0 0 0 0 0 0 0 0 0 0 0 0 0
-0 -0 0 0 0 0 0 0 0 0 0 0 0 -0 -0 -0 -0 -0 -0 -0 -0 -0 -0 0 0 -0 -0 -0 -0 -0 0 0 0 -0 -0 0 -0 -0 -0 0 0 0 0 0 0 0 0 -0 -0
-0 -0 -0 -0 0 0 0 0 0 0 0 0 0 0 -0 -0 -0 -0 -0 0 0 0 -0 -0 -0 -0 -0 -0 -0 -0 0 0 -0 -0 -0 -0 -0 -0 -0 0 -0 0 0 0 0 0 -0 -0 -0
-0 -0 0 0 -0 0 -0 0 -0 -0 -0 0 0 0 0 -0 -0 -0 0 0 0 0 0 -0 -0 -0 -0 -0 -0 -0 -0 -0 -0 -0 -0 -0 -0 -0 -0 0 0 0 0 -0 -0 -0 -0 -0 -0
0 -0 0 -0 -0 -0 -0 -0 -0 -0 -0 0 0 0 -0 -0 -0 -0 -0 0 -0 0 0 0 0 0 0 0 -0 -0 -0 -0 0 0 0 0 -0 -0 -0 0 0 0 0 -0 -0 -0 -0 0 0
0 0 -0 -0 -0 -0 -0 -0 -0 -1 -0 -0 0 -0 -0 -0 -0 -0 -0 -0 -0 0 0 -0 0 0 -0 -0 0 0 0 0 0 0 0 -0 -0 -0 -0 0 0 -0 -0 -0 -0 0 0 0 0
0 0 0 0 0 -0 -0 -0 -0 -0 -0 -0 -0 -0 -0 -0 -0 -0 -0 -0 -0 -0 -0 -0 -0 -0 -0 -0 -0 -0 0 0 0 0 -0 -0 -0 -0 -0 -0 0 -0 0 -0 -0 0 0 0 0
0 0 0 0 0 -0 -0 -0 -0 -0 -0 -0 -0 -0 -0 -0 -0 -0 -0 -0 -0 -0 -0 -0 -0 -0 -0 0 0 0 0 0 0 0 0 -0 0 0 -0 -0 -0 -0 -0 0 0 0 0 0 0
-0 0 0 0 0 0 0 0 -0 -0 -0 -1 -0 -0 0 -0 0 -0 -0 -0 -0 -0 -0 -0 -0 -0 -0 -0 -0 -0 0 -0 0 0 0 -0 -0 0 -0 -0 -0 -0 0 0 0 0 0 0 0
0 0 0 0 0 -0 -0 -0 0 -0 -0 -0 -0 -0 -0 -0 -0 -0 -0 -0 -0 -0 -0 -0 -0 -1 -0 -0 -0 -0 -0 0 0 0 -0 -0 -0 -0 -0 -0 0 0 0 0 0 0 0 0 0
0 0 0 0 0 -0 -0 0 -0 0 0 0 0 -0 -0 -0 -0 -0 -0 -0 -0 -0 -0 -0 -0 -1 -1 -1 -0 -0 -0 -0 -0 -0 -0 -0 -0 0 -0 -0 0 0 0 0 0 0 0 0 0
0 0 0 0 0 0 0 0 0 0 -0 0 0 0 -0 -0 -0 -0 -0 -0 -0 -0 -0 -0 -1 -1 -1 -1 -1 -1 -0 -0 -0 -0 -0 -0 -0 -0 -0 0 0 0 0 0 0 0 0 0 0
0 0 0 0 0 0 0 0 -0 0 0 -0 0 -0 0 -0 -0 -0 -0 -0 -0 -0 -0 -0 -1 -1 -1 -1 -1 -1 -1 -0 -0 -0 -0 -0 0 0 0 0 0 0 0 0 0 0 0 0 0
0 0 0 0 0 0 0 0 0 -0 0 0 0 0 0 -0 -0 -0 -0 -0 -0 -0 -0 -0 -0 -0 -0 -0 -0 -0 -0 0 0 0 0 0 0 0 0 0 0 0 0 0 0 0 0 0 0
0 0 0 0 0 -0 0 0 0 0 0 0 0 0 0 0 -0 -0 -0 -0 -0 -0 -0 -0 -0 -0 -0 -0 -0 -0 -0 -0 0 0 0 0 0 0 0 0 0 0 0 0 0 0 0 0 0
0 0 0 0 0 0 0 0 0 0 0 0 0 0 0 0 0 -0 -0 -0 -0 -0 -0 -0 -0 -0 0 0 0 0 0 0 0 0 0 0 0 0 0 0 0 0 0 0 0 0 0 0 0
0 0 0 0 0 0 0 0 0 0 0 0 0 0 0 0 0 0 -0 -0 -0 -0 -0 -0 -0 -0 -0 0 0 1 1 0 0 0 0 0 0 0 0 0 0 0 0 0 0 0 0 0 0
Wind_Speed_500mb
23 22 14 7 10 10 24 15 19 27 24 32 32 11 12 9 7 16 44 36 34 32 26 26 29 32 35 35 38 40 36 30 25 23 22 19 20 22 19 19 19 15 10 7 4 4 4 6 9
23 21 7 10 5 18 17 17 23 20 35 43 30 23 11 13 17 39 42 40 39 31 27 25 31 32 33 32 31 32 30 25 22 19 18 19 20 20 17 17 16 9 3 3 4 6 6 8 12
21 8 10 7 20 21 15 17 20 27 40 38 19 22 8 20 35 48 39 47 39 36 30 30 32 34 33 30 29 27 24 19 18 16 16 20 20 17 13 12 10 7 5 6 8 8 10 12 16
5 4 12 21 29 26 20 17 25 28 30 17 23 18 19 12 37 32 50 42 37 36 30 32 32 31 31 26 24 20 19 17 14 14 15 15 15 12 10 11 12 9 10 10 11 10 11 12 13
1 13 17 23 25 21 19 24 31 29 23 19 15 15 24 40 20 47 46 41 36 35 29 29 30 29 26 23 22 18 15 16 15 16 15 14 14 13 12 11 11 12 11 12 10 8 10 12 12
10 13 17 23 23 14 16 21 27 17 18 20 16 29 25 30 41 46 43 39 35 33 29 26 28 27 26 21 20 18 17 18 17 16 16 15 13 13 10 11 11 11 11 11 11 11 9 13 12
11 14 18 23 19 17 15 20 10 13 18 19 23 25 29 37 46 45 44 41 34 33 31 26 22 25 25 22 21 18 17 17 17 15 16 16 14 12 6 8 10 12 11 10 11 10 10 12 11
8 2 17 12 18 18 13 12 8 17 16 22 28 17 47 51 51 45 39 34 34 31 30 27 24 20 18 19 20 17 14 13 13 15 14 15 12 8 8 8 8 11 11 11 9 11 12 11 9
9 7 16 15 12 18 22 16 16 8 22 9 17 21 58 53 51 46 41 36 32 32 29 27 26 23 21 17 14 14 10 9 7 7 11 10 5 4 6 3 11 12 12 11 9 9 9 8 3
9 16 21 12 14 21 23 18 18 17 23 19 14 41 56 56 52 49 46 42 39 35 33 30 26 23 21 17 15 11 9 5 7 10 9 6 10 9 7 1 10 17 13 13 13 17 17 5 5
4 16 8 10 8 22 24 18 17 22 16 24 30 51 61 57 51 48 43 39 39 36 34 32 31 27 23 19 15 12 8 7 7 9 9 10 7 6 4 1 3 12 15 11 13 15 23 27 21
9 9 9 10 12 15 15 18 16 14 9 14 32 54 60 56 51 47 43 41 40 37 34 33 30 29 26 21 17 16 12 10 8 10 11 10 9 12 15 9 8 13 12 18 14 14 15 16 24
5 9 10 14 17 14 11 8 5 6 5 21 40 57 53 47 44 41 37 34 34 36 33 31 31 29 25 25 19 13 13 8 10 9 11 13 11 14 15 17 16 14 10 10 13 15 16 23 23
7 9 13 11 13 13 10 8 7 9 16 34 48 53 46 45 41 38 36 33 33 33 32 30 30 31 27 25 24 16 10 10 8 10 12 13 14 15 16 14 15 15 16 21 22 17 20 22 26
15 10 9 7 10 7 8 14 10 22 22 38 46 47 42 40 38 38 36 33 31 32 29 29 29 30 29 25 21 17 13 9 7 10 13 11 11 10 13 14 15 13 9 13 18 25 20 18 19
10 7 7 9 10 7 14 10 19 30 31 35 44 44 41 42 41 37 34 31 30 31 33 31 28 28 26 24 21 17 16 14 12 8 7 7 10 6 6 12 11 14 12 13 15 16 16 18 15
10 4 7 5 15 5 18 7 20 35 35 38 41 43 43 41 40 38 36 34 32 32 32 34 31 29 28 27 22 20 20 18 16 13 7 6 4 6 5 7 6 6 7 10 11 14 12 13 12
8 1 4 8 8 15 19 18 22 35 37 39 42 42 44 44 44 40 37 35 34 34 34 31 31 30 28 24 22 18 17 19 19 14 10 7 2 3 2 4 5 1 4 3 6 3 5 6 6
9 13 13 13 8 12 16 20 16 36 40 40 43 44 45 45 43 42 41 39 36 35 34 34 34 31 30 23 17 16 16 19 18 17 10 6 4 1 4 7 2 3 4 4 2 2 4 5 6
22 22 20 15 4 9 20 23 18 30 44 47 47 48 47 44 46 46 44 42 41 40 39 37 37 37 33 26 21 15 16 17 17 15 11 8 6 2 2 4 4 4 6 4 2 4 3 6 6
30 25 20 23 18 20 20 23 13 21 34 45 47 49 49 49 48 49 49 48 46 45 44 42 43 39 36 31 30 24 21 24 25 19 16 12 6 6 3 3 7 5 3 4 5 5 7 8 11
35 18 13 17 20 20 10 20 16 21 27 34 46 53 53 52 49 49 49 50 48 47 45 44 46 45 40 36 33 29 22 20 21 20 19 16 14 11 6 4 5 5 7 9 8 10 12 14 15
33 3 13 19 23 26 27 15 3 17 17 26 41 54 59 59 56 51 51 50 48 44 42 43 44 48 46 43 37 32 24 18 14 17 20 15 18 16 13 8 5 7 9 15 16 21 19 14 13
21 14 20 24 24 28 35 16 23 4 5 9 8 41 52 63 62 56 51 47 47 46 43 40 40 45 49 48 46 39 32 25 19 19 17 18 18 17 17 12 12 12 11 14 17 21 20 14 12
22 32 30 33 28 26 31 14 26 26 24 16 6 18 43 58 67 64 58 53 49 50 49 49 47 45 47 49 51 46 35 30 23 22 19 19 16 14 15 13 14 11 13 17 17 19 20 15 8
27 34 31 41 32 29 13 18 27 21 22 26 8 9 19 45 63 67 64 59 54 52 51 53 61 51 47 47 48 50 42 28 24 21 21 16 16 15 18 16 16 15 18 20 19 8 2 5 2
35 24 36 44 44 21 29 17 15 33 32 26 4 10 18 37 55 66 66 65 58 55 56 59 59 60 49 46 49 49 48 40 26 23 23 18 20 20 19 15 16 17 19 18 12 4 3 4 4
27 15 19 24 39 44 35 34 19 22 16 16 7 11 16 29 44 59 62 62 58 56 56 56 60 59 57 47 46 47 47 46 37 28 23 23 24 23 18 18 19 20 18 10 6 5 5 4 3
20 26 26 29 24 31 32 30 29 19 26 20 13 4 13 29 36 51 56 56 55 52 54 54 57 58 59 49 42 43 39 40 41 33 29 28 25 22 20 21 20 15 10 7 12 13 4 1 3
23 30 36 24 32 21 29 31 15 14 16 21 13 9 13 27 30 42 49 53 53 53 53 55 54 54 53 47 44 42 42 42 40 37 33 30 29 24 22 19 15 8 8 10 10 13 5 4 7
Wind_Direction_500mb
159 155 161 209 236 88 53 76 114 113 114 116 150 144 104 59 78 126 153 153 141 130 138 131 137 140 135 134 127 129 134 135 130 124 126 133 139 142 143 144 145 139 132 128 168 169 84 97 124
151 157 171 256 291 71 62 107 112 105 117 126 148 154 109 80 115 137 153 158 145 136 139 138 144 145 146 142 135 134 136 139 131 123 122 129 131 133 133 128 133 128 124 89 104 142 134 123 131
151 158 252 273 42 46 82 115 111 113 136 140 117 101 141 116 133 145 161 151 147 142 145 158 145 141 140 140 139 141 138 130 124 126 127 126 128 129 132 140 146 157 163 149 113 125 128 124 120
144 238 248 52 73 52 81 129 126 138 153 144 125 93 95 120 139 148 149 149 150 146 150 152 144 143 143 146 139 133 132 132 124 126 131 133 131 136 144 143 150 161 160 138 122 121 134 130 122
356 252 89 79 76 78 78 119 134 148 155 151 167 117 114 142 134 146 150 151 152 147 155 148 148 147 143 148 144 136 132 129 127 122 115 120 130 134 141 145 152 161 150 149 151 139 139 135 134
213 269 71 75 87 97 94 137 140 130 151 132 129 131 134 153 149 152 151 151 155 153 149 160 148 151 151 150 143 139 141 138 131 127 129 112 118 126 139 156 162 162 155 156 143 146 152 146 141
325 66 73 81 102 102 126 149 178 159 152 156 142 138 148 155 160 156 158 157 160 156 159 159 156 158 158 158 153 148 142 143 144 141 127 133 138 116 125 152 157 160 161 157 150 143 159 159 156
294 232 91 76 81 93 131 166 155 154 130 135 157 170 163 160 160 159 160 163 165 162 166 164 166 167 167 173 164 157 147 140 143 151 148 147 146 136 63 183 172 170 164 156 165 153 152 164 174
268 63 71 82 89 124 141 135 150 136 139 166 172 157 158 158 159 162 164 168 170 171 175 172 171 174 172 180 191 165 159 149 143 137 160 138 157 78 47 239 205 196 177 168 171 161 162 161 161
276 50 51 57 99 134 152 152 144 154 151 144 143 140 159 161 167 171 173 175 176 178 175 177 173 175 181 177 194 166 192 157 175 180 174 143 188 185 146 144 240 195 182 179 190 207 219 187 191
49 66 82 86 91 140 150 146 154 156 175 171 165 161 163 167 174 178 181 182 181 181 178 182 180 182 182 187 175 179 195 199 218 191 173 196 195 210 199 231 102 175 190 186 206 219 213 246 250
130 71 88 107 127 138 153 144 156 184 66 161 170 170 166 173 179 183 184 183 184 187 188 188 191 187 183 182 184 196 187 193 192 207 200 215 194 209 216 177 177 165 193 196 204 219 222 230 260
53 117 115 129 145 148 136 157 126 125 139 157 158 167 173 180 182 184 185 187 189 190 194 194 194 194 192 187 187 177 185 198 206 217 237 237 238 217 225 216 187 181 187 205 210 219 221 240 232
101 134 121 146 146 149 162 149 208 131 140 149 158 169 178 181 185 184 188 191 195 196 197 195 193 195 190 191 194 190 186 211 222 230 238 262 266 254 233 219 205 204 208 206 223 237 244 244 252
128 137 155 164 168 155 194 177 207 136 150 154 163 171 178 186 188 192 194 195 193 193 194 194 192 195 191 193 196 198 212 218 230 250 261 280 294 281 226 209 207 212 227 246 237 240 244 258 251
181 219 266 136 203 152 223 53 144 156 160 169 170 176 184 191 196 198 199 197 196 192 196 194 192 196 197 198 199 199 213 214 229 228 251 316 355 16 192 208 211 222 243 239 238 234 249 250 255
199 65 358 6 208 220 233 341 154 172 173 175 181 183 188 193 198 201 200 200 197 199 198 198 201 202 206 211 214 220 228 221 212 214 224 271 342 49 118 152 177 178 193 212 221 225 236 261 271
150 270 334 353 32 232 246 253 160 193 187 185 188 190 191 190 194 193 194 195 197 198 200 202 203 201 206 209 219 224 222 212 205 210 218 256 327 25 147 154 185 86 173 186 197 186 238 252 299
292 283 303 353 48 290 265 270 236 193 205 193 195 197 196 194 188 191 194 195 194 197 200 201 198 204 208 206 205 209 198 194 195 203 208 218 183 154 130 188 223 174 184 212 222 265 281 207 276
256 275 277 300 54 263 298 286 259 192 207 207 200 198 202 197 189 193 196 198 199 201 201 200 202 207 206 206 205 187 178 178 184 180 158 151 172 189 174 164 189 202 209 215 246 288 326 296 261
247 260 292 300 318 246 291 277 153 195 204 214 213 208 204 202 194 195 199 203 203 205 206 206 211 212 208 200 211 209 189 186 179 180 163 156 187 183 210 184 188 247 252 239 268 281 271 270 292
262 260 257 274 276 292 344 309 278 148 202 210 218 214 210 206 204 195 198 202 204 208 206 207 215 215 211 210 208 204 193 197 215 225 227 243 212 216 229 203 296 295 271 270 287 306 297 298 296
261 27 264 287 277 278 264 262 348 172 202 212 214 217 215 207 205 199 197 200 201 201 202 203 214 216 211 210 205 210 196 203 201 211 232 216 213 222 236 249 254 300 284 278 291 300 294 287 280
261 221 237 248 267 268 260 261 280 97 306 123 207 209 215 210 205 204 199 195 196 198 198 195 206 209 212 210 207 206 203 197 196 200 204 216 235 226 235 242 262 277 270 268 284 293 291 281 274
223 242 252 245 234 246 254 239 261 309 307 306 301 254 207 208 203 202 198 192 192 193 194 194 201 200 205 208 209 212 210 208 214 214 204 204 205 206 230 256 270 275 281 290 289 289 288 286 262
214 241 248 247 249 257 165 239 257 264 311 298 289 264 204 205 202 200 199 195 193 192 191 194 203 199 200 205 208 211 214 207 205 218 211 206 215 205 239 251 264 280 290 289 291 307 304 299 325
240 238 257 269 267 261 272 221 253 267 266 278 351 270 209 195 200 198 199 197 195 194 195 200 206 205 204 204 206 209 214 209 206 206 213 214 205 228 245 253 263 278 284 288 296 226 106 89 71
254 318 215 231 250 256 241 253 264 279 257 289 280 243 194 193 195 196 196 196 196 197 197 198 204 207 207 206 206 206 209 214 217 225 209 218 228 237 251 257 268 276 280 271 155 132 157 141 61
188 238 239 280 263 256 255 249 231 227 255 290 333 312 213 194 195 192 194 196 195 194 195 193 195 199 203 202 196 195 194 203 214 219 219 222 234 243 251 258 265 270 255 203 172 179 182 99 6
287 266 242 241 243 246 271 272 152 212 286 296 286 250 229 203 196 195 192 190 190 188 189 189 190 190 192 190 191 185 190 206 210 212 213 221 231 239 246 258 267 237 176 164 152 139 152 103 90
Wind_Speed_850mb
23 22 14 7 10 10 24 15 19 27 24 32 32 11 12 9 7 16 44 36 34 32 26 26 29 32 35 35 38 40 36 30 25 23 22 19 20 22 19 19 19 15 10 7 4 4 4 6 9
23 21 7 10 5 18 17 17 23 20 35 43 30 23 11 13 17 39 42 40 39 31 27 25 31 32 33 32 31 32 30 25 22 19 18 19 20 20 17 17 16 9 3 3 4 6 6 8 12
21 8 10 7 20 21 15 17 20 27 40 38 19 22 8 20 35 48 39 47 39 36 30 30 32 34 33 30 29 27 24 19 18 16 16 20 20 17 13 12 10 7 5 6 8 8 10 12 16
5 4 12 21 29 26 20 17 25 28 30 17 23 18 19 12 37 32 50 42 37 36 30 32 32 31 31 26 24 20 19 17 14 14 15 15 15 12 10 11 12 9 10 10 11 10 11 12 13
1 13 17 23 25 21 19 24 31 29 23 19 15 15 24 40 20 47 46 41 36 35 29 29 30 29 26 23 22 18 15 16 15 16 15 14 14 13 12 11 11 12 11 12 10 8 10 12 12
10 13 17 23 23 14 16 21 27 17 18 20 16 29 25 30 41 46 43 39 35 33 29 26 28 27 26 21 20 18 17 18 17 16 16 15 13 13 10 11 11 11 11 11 11 11 9 13 12
11 14 18 23 19 17 15 20 10 13 18 19 23 25 29 37 46 45 44 41 34 33 31 26 22 25 25 22 21 18 17 17 17 15 16 16 14 12 6 8 10 12 11 10 11 10 10 12 11
8 2 17 12 18 18 13 12 8 17 16 22 28 17 47 51 51 45 39 34 34 31 30 27 24 20 18 19 20 17 14 13 13 15 14 15 12 8 8 8 8 11 11 11 9 11 12 11 9
9 7 16 15 12 18 22 16 16 8 22 9 17 21 58 53 51 46 41 36 32 32 29 27 26 23 21 17 14 14 10 9 7 7 11 10 5 4 6 3 11 12 12 11 9 9 9 8 3
9 16 21 12 14 21 23 18 18 17 23 19 14 41 56 56 52 49 46 42 39 35 33 30 26 23 21 17 15 11 9 5 7 10 9 6 10 9 7 1 10 17 13 13 13 17 17 5 5
4 16 8 10 8 22 24 18 17 22 16 24 30 51 61 57 51 48 43 39 39 36 34 32 31 27 23 19 15 12 8 7 7 9 9 10 7 6 4 1 3 12 15 11 13 15 23 27 21
9 9 9 10 12 15 15 18 16 14 9 14 32 54 60 56 51 47 43 41 40 37 34 33 30 29 26 21 17 16 12 10 8 10 11 10 9 12 15 9 8 13 12 18 14 14 15 16 24
5 9 10 14 17 14 11 8 5 6 5 21 40 57 53 47 44 41 37 34 34 36 33 31 31 29 25 25 19 13 13 8 10 9 11 13 11 14 15 17 16 14 10 10 13 15 16 23 23
7 9 13 11 13 13 10 8 7 9 16 34 48 53 46 45 41 38 36 33 33 33 32 30 30 31 27 25 24 16 10 10 8 10 12 13 14 15 16 14 15 15 16 21 22 17 20 22 26
15 10 9 7 10 7 8 14 10 22 22 38 46 47 42 40 38 38 36 33 31 32 29 29 29 30 29 25 21 17 13 9 7 10 13 11 11 10 13 14 15 13 9 13 18 25 20 18 19
10 7 7 9 10 7 14 10 19 30 31 35 44 44 41 42 41 37 34 31 30 31 33 31 28 28 26 24 21 17 16 14 12 8 7 7 10 6 6 12 11 14 12 13 15 16 16 18 15
10 4 7 5 15 5 18 7 20 35 35 38 41 43 43 41 40 38 36 34 32 32 32 34 31 29 28 27 22 20 20 18 16 13 7 6 4 6 5 7 6 6 7 10 11 14 12 13 12
8 1 4 8 8 15 19 18 22 35 37 39 42 42 44 44 44 40 37 35 34 34 34 31 31 30 28 24 22 18 17 19 19 14 10 7 2 3 2 4 5 1 4 3 6 3 5 6 6
9 13 13 13 8 12 16 20 16 36 40 40 43 44 45 45 43 42 41 39 36 35 34 34 34 31 30 23 17 16 16 19 18 17 10 6 4 1 4 7 2 3 4 4 2 2 4 5 6
22 22 20 15 4 9 20 23 18 30 44 47 47 48 47 44 46 46 44 42 41 40 39 37 37 37 33 26 21 15 16 17 17 15 11 8 6 2 2 4 4 4 6 4 2 4 3 6 6
30 25 20 23 18 20 20 23 13 21 34 45 47 49 49 49 48 49 49 48 46 45 44 42 43 39 36 31 30 24 21 24 25 19 16 12 6 6 3 3 7 5 3 4 5 5 7 8 11
35 18 13 17 20 20 10 20 16 21 27 34 46 53 53 52 49 49 49 50 48 47 45 44 46 45 40 36 33 29 22 20 21 20 19 16 14 11 6 4 5 5 7 9 8 10 12 14 15
33 3 13 19 23 26 27 15 3 17 17 26 41 54 59 59 56 51 51 50 48 44 42 43 44 48 46 43 37 32 24 18 14 17 20 15 18 16 13 8 5 7 9 15 16 21 19 14 13
21 14 20 24 24 28 35 16 23 4 5 9 8 41 52 63 62 56 51 47 47 46 43 40 40 45 49 48 46 39 32 25 19 19 17 18 18 17 17 12 12 12 11 14 17 21 20 14 12
22 32 30 33 28 26 31 14 26 26 24 16 6 18 43 58 67 64 58 53 49 50 49 49 47 45 47 49 51 46 35 30 23 22 19 19 16 14 15 13 14 11 13 17 17 19 20 15 8
27 34 31 41 32 29 13 18 27 21 22 26 8 9 19 45 63 67 64 59 54 52 51 53 61 51 47 47 48 50 42 28 24 21 21 16 16 15 18 16 16 15 18 20 19 8 2 5 2
35 24 36 44 44 21 29 17 15 33 32 26 4 10 18 37 55 66 66 65 58 55 56 59 59 60 49 46 49 49 48 40 26 23 23 18 20 20 19 15 16 17 19 18 12 4 3 4 4
27 15 19 24 39 44 35 34 19 22 16 16 7 11 16 29 44 59 62 62 58 56 56 56 60 59 57 47 46 47 47 46 37 28 23 23 24 23 18 18 19 20 18 10 6 5 5 4 3
20 26 26 29 24 31 32 30 29 19 26 20 13 4 13 29 36 51 56 56 55 52 54 54 57 58 59 49 42 43 39 40 41 33 29 28 25 22 20 21 20 15 10 7 12 13 4 1 3
23 30 36 24 32 21 29 31 15 14 16 21 13 9 13 27 30 42 49 53 53 53 53 55 54 54 53 47 44 42 42 42 40 37 33 30 29 24 22 19 15 8 8 10 10 13 5 4 7
Wind_Direction_850mb
159 155 161 209 236 88 53 76 114 113 114 116 150 144 104 59 78 126 153 153 141 130 138 131 137 140 135 134 127 129 134 135 130 124 126 133 139 142 143 144 145 139 132 128 168 169 84 97 124
151 157 171 256 291 71 62 107 112 105 117 126 148 154 109 80 115 137 153 158 145 136 139 138 144 145 146 142 135 134 136 139 131 123 122 129 131 133 133 128 133 128 124 89 104 142 134 123 131
151 158 252 273 42 46 82 115 111 113 136 140 117 101 141 116 133 145 161 151 147 142 145 158 145 141 140 140 139 141 138 130 124 126 127 126 128 129 132 140 146 157 163 149 113 125 128 124 120
144 238 248 52 73 52 81 129 126 138 153 144 125 93 95 120 139 148 149 149 150 146 150 152 144 143 143 146 139 133 132 132 124 126 131 133 131 136 144 143 150 161 160 138 122 121 134 130 122
356 252 89 79 76 78 78 119 134 148 155 151 167 117 114 142 134 146 150 151 152 147 155 148 148 147 143 148 144 136 132 129 127 122 115 120 130 134 141 145 152 161 150 149 151 139 139 135 134
213 269 71 75 87 97 94 137 140 130 151 132 129 131 134 153 149 152 151 151 155 153 149 160 148 151 151 150 143 139 141 138 131 127 129 112 118 126 139 156 162 162 155 156 143 146 152 146 141
325 66 73 81 102 102 126 149 178 159 152 156 142 138 148 155 160 156 158 157 160 156 159 159 156 158 158 158 153 148 142 143 144 141 127 133 138 116 125 152 157 160 161 157 150 143 159 159 156
294 232 91 76 81 93 131 166 155 154 130 135 157 170 163 160 160 159 160 163 165 162 166 164 166 167 167 173 164 157 147 140 143 151 148 147 146 136 63 183 172 170 164 156 165 153 152 164 174
268 63 71 82 89 124 141 135 150 136 139 166 172 157 158 158 159 162 164 168 170 171 175 172 171 174 172 180 191 165 159 149 143 137 160 138 157 78 47 239 205 196 177 168 171 161 162 161 161
276 50 51 57 99 134 152 152 144 154 151 144 143 140 159 161 167 171 173 175 176 178 175 177 173 175 181 177 194 166 192 157 175 180 174 143 188 185 146 144 240 195 182 179 190 207 219 187 191
49 66 82 86 91 140 150 146 154 156 175 171 165 161 163 167 174 178 181 182 181 181 178 182 180 182 182 187 175 179 195 199 218 191 173 196 195 210 199 231 102 175 190 186 206 219 213 246 250
130 71 88 107 127 138 153 144 156 184 66 161 170 170 166 173 179 183 184 183 184 187 188 188 191 187 183 182 184 196 187 193 192 207 200 215 194 209 216 177 177 165 193 196 204 219 222 230 260
53 117 115 129 145 148 136 157 126 125 139 157 158 167 173 180 182 184 185 187 189 190 194 194 194 194 192 187 187 177 185 198 206 217 237 237 238 217 225 216 187 181 187 205 210 219 221 240 232
101 134 121 146 146 149 162 149 208 131 140 149 158 169 178 181 185 184 188 191 195 196 197 195 193 195 190 191 194 190 186 211 222 230 238 262 266 254 233 219 205 204 208 206 223 237 244 244 252
128 137 155 164 168 155 194 177 207 136 150 154 163 171 178 186 188 192 194 195 193 193 194 194 192 195 191 193 196 198 212 218 230 250 261 280 294 281 226 209 207 212 227 246 237 240 244 258 251
181 219 266 136 203 152 223 53 144 156 160 169 170 176 184 191 196 198 199 197 196 192 196 194 192 196 197 198 199 199 213 214 229 228 251 316 355 16 192 208 211 222 243 239 238 234 249 250 255
199 65 358 6 208 220 233 341 154 172 173 175 181 183 188 193 198 201 200 200 197 199 198 198 201 202 206 211 214 220 228 221 212 214 224 271 342 49 118 152 177 178 193 212 221 225 236 261 271
150 270 334 353 32 232 246 253 160 193 187 185 188 190 191 190 194 193 194 195 197 198 200 202 203 201 206 209 219 224 222 212 205 210 218 256 327 25 147 154 185 86 173 186 197 186 238 252 299
292 283 303 353 48 290 265 270 236 193 205 193 195 197 196 194 188 191 194 195 194 197 200 201 198 204 208 206 205 209 198 194 195 203 208 218 183 154 130 188 223 174 184 212 222 265 281 207 276
256 275 277 300 54 263 298 286 259 192 207 207 200 198 202 197 189 193 196 198 199 201 201 200 202 207 206 206 205 187 178 178 184 180 158 151 172 189 174 164 189 202 209 215 246 288 326 296 261
247 260 292 300 318 246 291 277 153 195 204 214 213 208 204 202 194 195 199 203 203 205 206 206 211 212 208 200 211 209 189 186 179 180 163 156 187 183 210 184 188 247 252 239 268 281 271 270 292
262 260 257 274 276 292 344 309 278 148 202 210 218 214 210 206 204 195 198 202 204 208 206 207 215 215 211 210 208 204 193 197 215 225 227 243 212 216 229 203 296 295 271 270 287 306 297 298 296
261 27 264 287 277 278 264 262 348 172 202 212 214 217 215 207 205 199 197 200 201 201 202 203 214 216 211 210 205 210 196 203 201 211 232 216 213 222 236 249 254 300 284 278 291 300 294 287 280
261 221 237 248 267 268 260 261 280 97 306 123 207 209 215 210 205 204 199 195 196 198 198 195 206 209 212 210 207 206 203 197 196 200 204 216 235 226 235 242 262 277 270 268 284 293 291 281 274
223 242 252 245 234 246 254 239 261 309 307 306 301 254 207 208 203 202 198 192 192 193 194 194 201 200 205 208 209 212 210 208 214 214 204 204 205 206 230 256 270 275 281 290 289 289 288 286 262
214 241 248 247 249 257 165 239 257 264 311 298 289 264 204 205 202 200 199 195 193 192 191 194 203 199 200 205 208 211 214 207 205 218 211 206 215 205 239 251 264 280 290 289 291 307 304 299 325
240 238 257 269 267 261 272 221 253 267 266 278 351 270 209 195 200 198 199 197 195 194 195 200 206 205 204 204 206 209 214 209 206 206 213 214 205 228 245 253 263 278 284 288 296 226 106 89 71
254 318 215 231 250 256 241 253 264 279 257 289 280 243 194 193 195 196 196 196 196 197 197 198 204 207 207 206 206 206 209 214 217 225 209 218 228 237 251 257 268 276 280 271 155 132 157 141 61
188 238 239 280 263 256 255 249 231 227 255 290 333 312 213 194 195 192 194 196 195 194 195 193 195 199 203 202 196 195 194 203 214 219 219 222 234 243 251 258 265 270 255 203 172 179 182 99 6
287 266 242 241 243 246 271 272 152 212 286 296 286 250 229 203 196 195 192 190 190 188 189 189 190 190 192 190 191 185 190 206 210 212 213 221 231 239 246 258 267 237 176 164 152 139 152 103 90